Location: Hertford
(51.8000°N, 0.0667°W)
Time: 03:18:25
(UTC+00:00)

COSMOS 2406 - Pass Details

Date: 18 September 2020
Orbit: 844 x 862 km, 71.0° (Epoch: 18 October)

Event Time Altitude Azimuth Distance (km) Brightness Sun altitude
Rises 20:45:26 0° 329° (NNW) 3,417 7.5 -23.6°
Reaches altitude 10° 20:47:54 10° 331° (NNW) 2,477 6.5 -23.9°
Maximum altitude 20:53:36 77° 58° (ENE) 874 3.1 -24.6°
Enters shadow 20:54:23 65° 118° (ESE) 931 3.1 -24.7°
